User: anonymous   Login
Location: Laguna de la Cañada del Gallo
(40.3974°N, 5.2096°W)
Time: 06:07:27
(UTC+00:00)
Language:

IRS-P2 Rocket - Orbit

View from above orbital plane
View from above orbital plane
View from above satellite
View from above satellite

Ground track
Ground track

The orbit data is extracted from the following two-line orbital elements,

1 23324U 94068B   24174.76938757  .00000085  00000-0  63628-4 0  9993
2 23324  98.9330 237.8626 0057245 179.2366 180.8906 14.17147879535160
Epoch (UTC): 22 June 2024 18:27:55
Eccentricity: 0.0057245
inclination: 98.9330°
perigee height: 794 km
apogee height: 876 km
right ascension of ascending node: 237.8626°
argument of perigee: 179.2366°
revolutions per day: 14.17147879
mean anomaly at epoch: 180.8906°
orbit number at epoch: 53516

The dashed part of the orbit path shows where the satellite is in the earth's shadow,  

DLR